User: anonymous   Login
Location: Shell Point
(30.0571°N, 84.2896°W)
Time: 02:20:58
(UTC-04:00)
Language:

Meteor 2-19 Rocket - Orbit

View from above orbital plane
View from above orbital plane
View from above satellite
View from above satellite

Ground track
Ground track

The orbit data is extracted from the following two-line orbital elements,

1 20671U 90057B   17081.93765959 +.00000038 +00000-0 +20272-4 0  9995
2 20671 082.5438 080.6745 0014796 194.4520 165.6219 13.84606773350856
Epoch (UTC): 22 March 2017 22:30:13
Eccentricity: 0.0014796
inclination: 82.5438°
perigee height: 937 km
apogee height: 958 km
right ascension of ascending node: 80.6745°
argument of perigee: 194.4520°
revolutions per day: 13.84606773
mean anomaly at epoch: 165.6219°
orbit number at epoch: 35085

The dashed part of the orbit path shows where the satellite is in the earth's shadow,  

DLR